ホルト-オルムステッド彗星

127P/Holt-Olmstead (2003)

English version
Home page
Updated on December 6, 2003

---------------------------------------------------------------------

・ プロフィール

・ 軌道要素

Epoch 2003 June 10.0 TT = JDT 2452800.5  
T 2003 June 12.46548 TT                                 Muraoka 
q   2.1590934            (2000.0)            P               Q
n   0.15549971     Peri.    6.49760     +0.93749775     -0.34274793
a   3.4249139      Node    14.00805     +0.30703925     +0.73331372
e   0.3695919      Incl.   14.39613     +0.16378297     +0.58717532
P   6.34
From 49 observations 1990-1996, mean residual 0".78.

・ 星図

・ 光度変化

        m1 = 13.0 + 5 logΔ + 15.0 log r

---------------------------------------------------------------------

軌道要素は村岡健治氏の計算によるものです。
星図は StellaNavigator Ver.2.0 for Windows (アストロアーツ 編著 / アスキー出版局刊) で作成したものです。
光度グラフはComet for Windowsで作成したものです。

---------------------------------------------------------------------

Copyright(C) Seiichi Yoshida (comet@aerith.net). All rights reserved.